Location: Alamogordo
(32.8990°N, 105.9600°W)
Time: 15:41:05
(UTC-06:00)

ISS - Visible Passes

Search period start: 30 September 2022 00:00
Search period end: 10 October 2022 00:00
Orbit: 414 x 417 km, 51.6° (Epoch: 30 September)

Date Brightness Start Highest point End Pass type
(mag) Time Alt. Az. Time Alt. Az. Time Alt. Az.
01 Oct -1.6 20:18:52 10° NNW 20:20:23 17° N 20:20:23 17° N visible
02 Oct -1.5 19:30:49 10° N 19:32:22 13° NNE 19:33:41 11° NE visible
02 Oct -0.6 21:06:05 10° NW 21:06:35 14° NW 21:06:35 14° NW visible
03 Oct -3.1 20:17:17 10° NW 20:19:58 46° N 20:19:58 46° N visible
04 Oct -2.7 19:28:39 10° NNW 19:31:37 29° NE 19:33:27 18° E visible
04 Oct -0.5 21:05:41 10° W 21:06:21 13° W 21:06:21 13° W visible
05 Oct -2.6 20:16:16 10° WNW 20:19:23 39° SW 20:20:00 35° SSW visible
06 Oct -3.8 19:27:10 10° NW 19:30:31 84° SW 19:33:49 10° SE visible
07 Oct -0.7 20:16:40 10° WSW 20:17:53 12° SW 20:19:07 10° SSW visible
08 Oct -1.3 19:26:23 10° WNW 19:29:03 23° SW 19:31:45 10° S visible
